Time,TemperatureF,DewpointF,PressureIn,WindDirection,WindDirectionDegrees,WindSpeedMPH,WindSpeedGustMPH,Humidity,HourlyPrecipIn,Conditions,Clouds,dailyrainin,SoftwareType,DateUTC
2013-02-01 00:04:00,29.1,3.0,29.82,WNW,284,13.2,13.2,32,0.00,NA,NA,-99.99,VWS Version 10.38,2013-02-01 05:04:00,
2013-02-01 00:14:00,28.9,3.5,29.82,WSW,254,8.1,8.1,33,0.00,NA,NA,-99.99,VWS Version 10.38,2013-02-01 05:14:00,
2013-02-01 00:19:00,28.9,4.1,29.85,WNW,284,7.2,7.2,34,0.00,NA,NA,-99.99,VWS Version 10.38,2013-02-01 05:19:00,
2013-02-01 00:24:00,28.9,4.1,29.85,WSW,241,4.9,4.9,34,0.00,NA,NA,-99.99,VWS Version 10.38,2013-02-01 05:24:00,
2013-02-01 00:29:00,29.1,4.3,29.85,WSW,242,6.3,6.3,34,0.00,NA,NA,-99.99,VWS Version 10.38,2013-02-01 05:29:00,
2013-02-01 00:34:00,29.1,4.3,29.82,SW,223,14.5,14.5,34,0.00,NA,NA,-99.99,VWS Version 10.38,2013-02-01 05:34:00,
2013-02-01 00:39:00,29.1,4.3,29.82,NNW,333,8.7,8.7,34,0.00,NA,NA,-99.99,VWS Version 10.38,2013-02-01 05:39:00,
2013-02-01 00:45:00,28.9,4.7,29.85,SW,222,3.6,3.6,35,0.00,NA,NA,-99.99,VWS Version 10.38,2013-02-01 05:45:00,
2013-02-01 00:50:00,28.9,4.1,29.85,SSW,208,4.5,4.5,34,0.00,NA,NA,-99.99,VWS Version 10.38,2013-02-01 05:50:00,
2013-02-01 00:55:00,28.8,3.9,29.85,SW,218,5.4,5.4,34,0.00,NA,NA,-99.99,VWS Version 10.38,2013-02-01 05:55:00,
2013-02-01 01:00:00,28.8,3.9,29.85,West,273,6.3,6.3,34,0.00,NA,NA,-99.99,VWS Version 10.38,2013-02-01 06:00:00,
2013-02-01 01:10:00,28.0,3.3,29.85,SSW,196,3.1,3.1,34,0.00,NA,NA,-99.99,VWS Version 10.38,2013-02-01 06:10:00,
2013-02-01 01:15:00,27.9,3.2,29.85,SSE,157,3.6,3.6,34,0.00,NA,NA,-99.99,VWS Version 10.38,2013-02-01 06:15:00,
2013-02-01 01:20:00,27.7,2.3,29.85,West,261,5.4,5.4,33,0.00,NA,NA,-99.99,VWS Version 10.38,2013-02-01 06:20:00,
2013-02-01 01:30:00,27.7,1.7,29.85,SW,219,8.3,8.3,32,0.00,NA,NA,-99.99,VWS Version 10.38,2013-02-01 06:30:00,
2013-02-01 01:40:00,27.3,1.4,29.85,WSW,242,10.1,10.1,32,0.00,NA,NA,-99.99,VWS Version 10.38,2013-02-01 06:40:00,
2013-02-01 11:54:00,34.7,6.4,29.93,NW,317,5.4,5.4,30,0.00,NA,NA,-99.99,VWS Version 10.38,2013-02-01 16:54:00,
2013-02-01 11:59:00,34.5,6.3,29.93,West,275,8.3,8.3,30,0.00,NA,NA,-99.99,VWS Version 10.38,2013-02-01 16:59:00,
2013-02-01 12:04:00,34.3,3.8,29.93,WSW,241,6.7,6.7,27,0.00,NA,NA,-99.99,VWS Version 10.38,2013-02-01 17:04:00,
2013-02-01 12:09:00,34.3,3.8,29.93,SW,225,5.4,5.4,27,0.00,NA,NA,-99.99,VWS Version 10.38,2013-02-01 17:09:00,
2013-02-01 12:19:00,34.5,4.0,29.93,WSW,253,5.8,5.8,27,0.00,NA,NA,-99.99,VWS Version 10.38,2013-02-01 17:19:00,
2013-02-01 12:24:00,35.1,4.5,29.93,West,272,2.7,2.7,27,0.00,NA,NA,-99.99,VWS Version 10.38,2013-02-01 17:24:00,
2013-02-01 12:29:00,35.1,4.5,29.93,WNW,297,5.8,5.8,27,0.00,NA,NA,-99.99,VWS Version 10.38,2013-02-01 17:29:00,
2013-02-01 12:34:00,34.3,3.8,29.91,NW,313,6.3,6.3,27,0.00,NA,NA,-99.99,VWS Version 10.38,2013-02-01 17:34:00,
2013-02-01 12:39:00,33.6,4.0,29.91,WSW,257,10.1,10.1,28,0.00,NA,NA,-99.99,VWS Version 10.38,2013-02-01 17:39:00,
2013-02-01 12:49:00,33.6,4.0,29.93,West,271,6.3,6.3,28,0.00,NA,NA,-99.99,VWS Version 10.38,2013-02-01 17:49:00,
2013-02-01 12:54:00,33.8,3.4,29.93,SW,214,6.3,6.3,27,0.00,NA,NA,-99.99,VWS Version 10.38,2013-02-01 17:54:00,
2013-02-01 12:59:00,33.8,3.4,29.93,NNW,334,5.8,5.8,27,0.00,NA,NA,-99.99,VWS Version 10.38,2013-02-01 17:59:00,
2013-02-01 13:04:00,33.3,1.2,29.93,North,353,3.1,3.1,25,0.00,NA,NA,-99.99,VWS Version 10.38,2013-02-01 18:04:00,
2013-02-01 13:09:00,33.3,1.2,29.93,WNW,294,8.1,8.1,25,0.00,NA,NA,-99.99,VWS Version 10.38,2013-02-01 18:09:00,
2013-02-01 13:14:00,33.1,1.1,29.93,NW,314,3.6,3.6,25,0.00,NA,NA,-99.99,VWS Version 10.38,2013-02-01 18:14:00,
2013-02-01 13:24:00,33.3,1.2,29.93,NNW,342,4.0,4.0,25,0.00,NA,NA,-99.99,VWS Version 10.38,2013-02-01 18:24:00,
2013-02-01 13:29:00,32.7,0.8,29.93,NW,306,5.8,5.8,25,0.00,NA,NA,-99.99,VWS Version 10.38,2013-02-01 18:29:00,
2013-02-01 13:34:00,32.9,0.9,29.93,WSW,243,8.1,8.1,25,0.00,NA,NA,-99.99,VWS Version 10.38,2013-02-01 18:34:00,
2013-02-01 13:39:00,33.4,1.4,29.93,SW,223,8.1,8.1,25,0.00,NA,NA,-99.99,VWS Version 10.38,2013-02-01 18:39:00,
2013-02-01 13:44:00,33.8,1.7,29.93,WSW,249,4.0,4.0,25,0.00,NA,NA,-99.99,VWS Version 10.38,2013-02-01 18:44:00,
2013-02-01 13:54:00,33.3,1.2,29.93,WSW,241,3.6,3.6,25,0.00,NA,NA,-99.99,VWS Version 10.38,2013-02-01 18:54:00,
2013-02-01 13:59:00,33.6,1.6,29.93,WSW,256,5.4,5.4,25,0.00,NA,NA,-99.99,VWS Version 10.38,2013-02-01 18:59:00,
2013-02-01 14:04:00,33.4,1.4,29.93,NW,315,6.3,6.3,25,0.00,NA,NA,-99.99,VWS Version 10.38,2013-02-01 19:04:00,
2013-02-01 14:09:00,33.1,1.1,29.93,NNW,327,6.3,6.3,25,0.00,NA,NA,-99.99,VWS Version 10.38,2013-02-01 19:09:00,
2013-02-01 14:14:00,33.3,1.2,29.93,NW,320,9.6,9.6,25,0.00,NA,NA,-99.99,VWS Version 10.38,2013-02-01 19:14:00,
2013-02-01 14:19:00,33.3,-0.5,29.96,NW,316,4.9,4.9,23,0.00,NA,NA,-99.99,VWS Version 10.38,2013-02-01 19:19:00,
2013-02-01 14:29:00,33.1,1.1,29.96,East,92,5.8,5.8,25,0.00,NA,NA,-99.99,VWS Version 10.38,2013-02-01 19:29:00,
2013-02-01 14:34:00,32.5,-1.1,29.96,WNW,297,8.1,8.1,23,0.00,NA,NA,-99.99,VWS Version 10.38,2013-02-01 19:34:00,
2013-02-01 14:39:00,32.2,-1.4,29.96,SW,231,6.3,6.3,23,0.00,NA,NA,-99.99,VWS Version 10.38,2013-02-01 19:39:00,
2013-02-01 14:44:00,31.8,0.0,29.96,West,275,7.6,7.6,25,0.00,NA,NA,-99.99,VWS Version 10.38,2013-02-01 19:44:00,
2013-02-01 14:49:00,31.8,0.0,29.96,NNW,343,7.6,7.6,25,0.00,NA,NA,-99.99,VWS Version 10.38,2013-02-01 19:49:00,
2013-02-01 14:59:00,31.8,0.0,29.96,NNE,15,7.6,7.6,25,0.00,NA,NA,-99.99,VWS Version 10.38,2013-02-01 19:59:00,
2013-02-01 15:04:00,31.8,0.0,29.96,WNW,300,6.3,6.3,25,0.00,NA,NA,-99.99,VWS Version 10.38,2013-02-01 20:04:00,
2013-02-01 15:09:00,32.4,0.5,29.96,NW,312,10.5,10.5,25,0.00,NA,NA,-99.99,VWS Version 10.38,2013-02-01 20:09:00,
2013-02-01 15:14:00,33.3,1.2,29.96,SW,227,5.4,5.4,25,0.00,NA,NA,-99.99,VWS Version 10.38,2013-02-01 20:14:00,
2013-02-01 15:19:00,34.0,1.9,29.99,West,260,6.3,6.3,25,0.00,NA,NA,-99.99,VWS Version 10.38,2013-02-01 20:19:00,
2013-02-01 15:29:00,33.1,1.1,29.99,WNW,302,2.7,2.7,25,0.00,NA,NA,-99.99,VWS Version 10.38,2013-02-01 20:29:00,
2013-02-01 15:34:00,32.4,0.5,29.99,North,4,3.1,3.1,25,0.00,NA,NA,-99.99,VWS Version 10.38,2013-02-01 20:34:00,
2013-02-01 15:39:00,31.8,0.0,29.99,NNW,328,5.4,5.4,25,0.00,NA,NA,-99.99,VWS Version 10.38,2013-02-01 20:39:00,
2013-02-01 15:44:00,31.3,-0.4,29.99,NW,313,3.1,3.1,25,0.00,NA,NA,-99.99,VWS Version 10.38,2013-02-01 20:44:00,
2013-02-01 15:49:00,30.6,-1.1,29.99,West,277,8.3,8.3,25,0.00,NA,NA,-99.99,VWS Version 10.38,2013-02-01 20:49:00,
2013-02-01 15:54:00,30.2,-1.4,29.99,West,277,6.3,6.3,25,0.00,NA,NA,-99.99,VWS Version 10.38,2013-02-01 20:54:00,
2013-02-01 16:04:00,30.2,-1.4,30.02,West,279,7.6,7.6,25,0.00,NA,NA,-99.99,VWS Version 10.38,2013-02-01 21:04:00,
2013-02-01 16:09:00,29.7,-1.8,30.02,NW,320,7.2,7.2,25,0.00,NA,NA,-99.99,VWS Version 10.38,2013-02-01 21:09:00,
2013-02-01 16:14:00,29.3,-2.2,30.02,WNW,294,11.9,11.9,25,0.00,NA,NA,-99.99,VWS Version 10.38,2013-02-01 21:14:00,
2013-02-01 16:19:00,29.1,-2.3,30.02,West,278,5.4,5.4,25,0.00,NA,NA,-99.99,VWS Version 10.38,2013-02-01 21:19:00,
2013-02-01 16:24:00,29.5,-2.0,30.02,WNW,284,8.1,8.1,25,0.00,NA,NA,-99.99,VWS Version 10.38,2013-02-01 21:24:00,
2013-02-01 16:29:00,28.9,-2.5,30.02,West,277,5.4,5.4,25,0.00,NA,NA,-99.99,VWS Version 10.38,2013-02-01 21:29:00,
2013-02-01 16:39:00,28.4,-2.1,30.05,WNW,302,3.6,3.6,26,0.00,NA,NA,-99.99,VWS Version 10.38,2013-02-01 21:39:00,
2013-02-01 16:44:00,28.6,-2.8,30.05,West,276,11.0,11.0,25,0.00,NA,NA,-99.99,VWS Version 10.38,2013-02-01 21:44:00,
2013-02-01 16:49:00,28.0,-0.9,30.05,West,259,6.3,6.3,28,0.00,NA,NA,-99.99,VWS Version 10.38,2013-02-01 21:49:00,
2013-02-01 16:54:00,27.7,-2.7,30.05,West,262,8.1,8.1,26,0.00,NA,NA,-99.99,VWS Version 10.38,2013-02-01 21:54:00,
2013-02-01 16:59:00,27.5,-1.3,30.05,WNW,292,10.1,10.1,28,0.00,NA,NA,-99.99,VWS Version 10.38,2013-02-01 21:59:00,
2013-02-01 17:04:00,27.3,-1.5,30.08,NW,315,3.6,3.6,28,0.00,NA,NA,-99.99,VWS Version 10.38,2013-02-01 22:04:00,
2013-02-01 17:19:00,25.9,-0.6,30.08,West,280,2.7,2.7,31,0.00,NA,NA,-99.99,VWS Version 10.38,2013-02-01 22:19:00,
2013-02-01 17:24:00,25.5,-0.9,30.08,SW,233,5.8,5.8,31,0.00,NA,NA,-99.99,VWS Version 10.38,2013-02-01 22:24:00,
2013-02-01 17:29:00,25.3,-0.4,30.08,NW,318,4.0,4.0,32,0.00,NA,NA,-99.99,VWS Version 10.38,2013-02-01 22:29:00,
2013-02-01 17:34:00,25.3,-0.4,30.08,WNW,292,8.1,8.1,32,0.00,NA,NA,-99.99,VWS Version 10.38,2013-02-01 22:34:00,
2013-02-01 17:39:00,25.3,-0.4,30.08,WNW,285,6.3,6.3,32,0.00,NA,NA,-99.99,VWS Version 10.38,2013-02-01 22:39:00,
2013-02-01 17:49:00,25.2,-1.2,30.11,WNW,300,4.0,4.0,31,0.00,NA,NA,-99.99,VWS Version 10.38,2013-02-01 22:49:00,
2013-02-01 17:54:00,25.0,-1.4,30.11,WNW,297,3.6,3.6,31,0.00,NA,NA,-99.99,VWS Version 10.38,2013-02-01 22:54:00,
2013-02-01 17:59:00,24.8,-0.9,30.11,NW,308,3.1,3.1,32,0.00,NA,NA,-99.99,VWS Version 10.38,2013-02-01 22:59:00,
2013-02-01 18:04:00,24.6,-1.0,30.11,WNW,296,6.3,6.3,32,0.00,NA,NA,-99.99,VWS Version 10.38,2013-02-01 23:04:00,
2013-02-01 18:09:00,24.4,-1.2,30.11,WNW,291,4.9,4.9,32,0.00,NA,NA,-99.99,VWS Version 10.38,2013-02-01 23:09:00,
2013-02-01 18:19:00,24.3,-1.3,30.14,NW,313,4.0,4.0,32,0.00,NA,NA,-99.99,VWS Version 10.38,2013-02-01 23:19:00,
2013-02-01 18:24:00,24.3,-1.3,30.14,West,265,7.6,7.6,32,0.00,NA,NA,-99.99,VWS Version 10.38,2013-02-01 23:24:00,
2013-02-01 18:29:00,24.3,-1.3,30.14,NW,307,12.8,12.8,32,0.00,NA,NA,-99.99,VWS Version 10.38,2013-02-01 23:29:00,
2013-02-01 18:34:00,24.3,-1.3,30.14,West,276,6.3,6.3,32,0.00,NA,NA,-99.99,VWS Version 10.38,2013-02-01 23:34:00,
2013-02-01 18:39:00,24.1,-1.5,30.14,WSW,240,9.6,9.6,32,0.00,NA,NA,-99.99,VWS Version 10.38,2013-02-01 23:39:00,
2013-02-01 18:45:00,24.1,-1.5,30.17,West,275,3.1,3.1,32,0.00,NA,NA,-99.99,VWS Version 10.38,2013-02-01 23:45:00,
2013-02-01 18:50:00,23.9,-3.7,30.17,WSW,257,2.7,2.7,29,0.00,NA,NA,-99.99,VWS Version 10.38,2013-02-01 23:50:00,
2013-02-01 18:55:00,23.5,-2.0,30.17,WNW,286,2.7,2.7,32,0.00,NA,NA,-99.99,VWS Version 10.38,2013-02-01 23:55:00,
2013-02-01 19:05:00,23.4,-2.1,30.17,West,277,6.3,6.3,32,0.00,NA,NA,-99.99,VWS Version 10.38,2013-02-02 00:05:00,
2013-02-01 19:10:00,23.2,-4.3,30.17,NNW,327,5.4,5.4,29,0.00,NA,NA,-99.99,VWS Version 10.38,2013-02-02 00:10:00,
2013-02-01 19:15:00,23.2,-4.3,30.17,NW,315,5.8,5.8,29,0.00,NA,NA,-99.99,VWS Version 10.38,2013-02-02 00:15:00,
2013-02-01 19:20:00,23.2,-4.3,30.20,West,272,8.3,8.3,29,0.00,NA,NA,-99.99,VWS Version 10.38,2013-02-02 00:20:00,
2013-02-01 19:25:00,23.0,-3.8,30.20,West,260,2.7,2.7,30,0.00,NA,NA,-99.99,VWS Version 10.38,2013-02-02 00:25:00,
2013-02-01 19:35:00,22.8,-4.0,30.20,WSW,256,3.1,3.1,30,0.00,NA,NA,-99.99,VWS Version 10.38,2013-02-02 00:35:00,
2013-02-01 19:40:00,22.8,-4.0,30.20,NW,314,4.9,4.9,30,0.00,NA,NA,-99.99,VWS Version 10.38,2013-02-02 00:40:00,
2013-02-01 19:50:00,22.6,-2.8,30.20,West,275,3.6,3.6,32,0.00,NA,NA,-99.99,VWS Version 10.38,2013-02-02 00:50:00,
2013-02-01 19:55:00,22.3,-3.1,30.20,NW,323,4.0,4.0,32,0.00,NA,NA,-99.99,VWS Version 10.38,2013-02-02 00:55:00,
2013-02-01 20:04:00,21.9,-3.4,30.20,WNW,295,2.7,2.7,32,0.00,NA,NA,-99.99,VWS Version 10.38,2013-02-02 01:04:00,
2013-02-01 20:09:00,21.9,-4.8,30.20,WNW,298,3.1,3.1,30,0.00,NA,NA,-99.99,VWS Version 10.38,2013-02-02 01:09:00,
2013-02-01 20:14:00,21.9,-3.4,30.20,WNW,294,4.0,4.0,32,0.00,NA,NA,-99.99,VWS Version 10.38,2013-02-02 01:14:00,
2013-02-01 20:19:00,21.9,-4.8,30.20,NNW,333,4.0,4.0,30,0.00,NA,NA,-99.99,VWS Version 10.38,2013-02-02 01:19:00,
2013-02-01 20:24:00,21.9,-4.8,30.20,West,268,4.0,4.0,30,0.00,NA,NA,-99.99,VWS Version 10.38,2013-02-02 01:24:00,
2013-02-01 20:29:00,21.7,-3.6,30.20,WNW,287,4.5,4.5,32,0.00,NA,NA,-99.99,VWS Version 10.38,2013-02-02 01:29:00,
2013-02-01 20:39:00,21.7,-3.6,30.23,NW,326,3.6,3.6,32,0.00,NA,NA,-99.99,VWS Version 10.38,2013-02-02 01:39:00,
2013-02-01 20:44:00,21.6,-3.7,30.23,WNW,296,3.1,3.1,32,0.00,NA,NA,-99.99,VWS Version 10.38,2013-02-02 01:44:00,
2013-02-01 20:49:00,21.4,-3.9,30.23,WNW,290,2.7,2.7,32,0.00,NA,NA,-99.99,VWS Version 10.38,2013-02-02 01:49:00,
2013-02-01 20:54:00,21.4,-3.9,30.23,WNW,291,2.7,2.7,32,0.00,NA,NA,-99.99,VWS Version 10.38,2013-02-02 01:54:00,
2013-02-01 20:59:00,21.2,-4.0,30.23,NW,325,2.7,2.7,32,0.00,NA,NA,-99.99,VWS Version 10.38,2013-02-02 01:59:00,
2013-02-01 21:09:00,21.2,-3.4,30.23,West,264,2.7,2.7,33,0.00,NA,NA,-99.99,VWS Version 10.38,2013-02-02 02:09:00,
2013-02-01 21:14:00,21.2,-3.4,30.23,WNW,284,2.2,2.2,33,0.00,NA,NA,-99.99,VWS Version 10.38,2013-02-02 02:14:00,
2013-02-01 21:19:00,21.0,-3.6,30.23,WNW,289,2.2,2.2,33,0.00,NA,NA,-99.99,VWS Version 10.38,2013-02-02 02:19:00,
2013-02-01 21:24:00,21.0,-3.6,30.23,WNW,295,2.7,2.7,33,0.00,NA,NA,-99.99,VWS Version 10.38,2013-02-02 02:24:00,
2013-02-01 21:29:00,20.8,-3.7,30.23,WSW,238,4.9,4.9,33,0.00,NA,NA,-99.99,VWS Version 10.38,2013-02-02 02:29:00,
2013-02-01 21:34:00,20.8,-3.7,30.26,NW,316,3.6,3.6,33,0.00,NA,NA,-99.99,VWS Version 10.38,2013-02-02 02:34:00,
2013-02-01 21:44:00,20.8,-3.7,30.26,NW,320,6.3,6.3,33,0.00,NA,NA,-99.99,VWS Version 10.38,2013-02-02 02:44:00,
2013-02-01 21:49:00,20.8,-3.7,30.26,West,270,4.9,4.9,33,0.00,NA,NA,-99.99,VWS Version 10.38,2013-02-02 02:49:00,
2013-02-01 21:54:00,20.8,-3.7,30.26,WNW,297,0.0,0.0,33,0.00,NA,NA,-99.99,VWS Version 10.38,2013-02-02 02:54:00,
2013-02-01 21:59:00,20.7,-3.9,30.26,West,272,0.0,0.0,33,0.00,NA,NA,-99.99,VWS Version 10.38,2013-02-02 02:59:00,
2013-02-01 22:04:00,20.7,-3.9,30.26,West,272,2.7,2.7,33,0.00,NA,NA,-99.99,VWS Version 10.38,2013-02-02 03:04:00,
2013-02-01 22:14:00,20.5,-4.0,30.26,West,261,2.2,2.2,33,0.00,NA,NA,-99.99,VWS Version 10.38,2013-02-02 03:14:00,
2013-02-01 22:19:00,20.3,-4.2,30.26,West,277,0.0,0.0,33,0.00,NA,NA,-99.99,VWS Version 10.38,2013-02-02 03:19:00,
2013-02-01 22:24:00,20.3,-3.6,30.26,West,270,0.0,0.0,34,0.00,NA,NA,-99.99,VWS Version 10.38,2013-02-02 03:24:00,
2013-02-01 22:29:00,20.3,-3.6,30.26,NW,304,0.0,0.0,34,0.00,NA,NA,-99.99,VWS Version 10.38,2013-02-02 03:29:00,
2013-02-01 22:34:00,20.1,-3.7,30.26,NW,304,0.0,0.0,34,0.00,NA,NA,-99.99,VWS Version 10.38,2013-02-02 03:34:00,
2013-02-01 22:44:00,19.8,-3.5,30.26,NW,304,0.0,0.0,35,0.00,NA,NA,-99.99,VWS Version 10.38,2013-02-02 03:44:00,
2013-02-01 22:49:00,19.6,-3.0,30.26,NW,304,0.0,0.0,36,0.00,NA,NA,-99.99,VWS Version 10.38,2013-02-02 03:49:00,
2013-02-01 22:54:00,19.4,-2.0,30.26,NW,304,0.0,0.0,38,0.00,NA,NA,-99.99,VWS Version 10.38,2013-02-02 03:54:00,
2013-02-01 22:59:00,19.0,-2.4,30.26,NW,304,0.0,0.0,38,0.00,NA,NA,-99.99,VWS Version 10.38,2013-02-02 03:59:00,
2013-02-01 23:04:00,18.7,-2.2,30.29,NW,304,0.0,0.0,39,0.00,NA,NA,-99.99,VWS Version 10.38,2013-02-02 04:04:00,
2013-02-01 23:14:00,18.3,-0.9,30.29,NW,304,0.0,0.0,42,0.00,NA,NA,-99.99,VWS Version 10.38,2013-02-02 04:14:00,
2013-02-01 23:19:00,18.0,-1.2,30.29,NW,304,0.0,0.0,42,0.00,NA,NA,-99.99,VWS Version 10.38,2013-02-02 04:19:00,
2013-02-01 23:24:00,17.8,-1.4,30.29,NW,304,0.0,0.0,42,0.00,NA,NA,-99.99,VWS Version 10.38,2013-02-02 04:24:00,
2013-02-01 23:29:00,17.6,-1.1,30.29,NW,304,0.0,0.0,43,0.00,NA,NA,-99.99,VWS Version 10.38,2013-02-02 04:29:00,
2013-02-01 23:34:00,17.4,-1.2,30.29,West,276,0.0,0.0,43,0.00,NA,NA,-99.99,VWS Version 10.38,2013-02-02 04:34:00,
2013-02-01 23:39:00,17.6,-0.6,30.29,West,276,0.0,0.0,44,0.00,NA,NA,-99.99,VWS Version 10.38,2013-02-02 04:39:00,
2013-02-01 23:49:00,17.4,-0.8,30.29,West,276,0.0,0.0,44,0.00,NA,NA,-99.99,VWS Version 10.38,2013-02-02 04:49:00,
2013-02-01 23:54:00,17.2,-0.9,30.29,West,276,0.0,0.0,44,0.00,NA,NA,-99.99,VWS Version 10.38,2013-02-02 04:54:00,
2013-02-01 23:59:00,17.1,-0.6,30.29,West,276,0.0,0.0,45,0.00,NA,NA,-99.99,VWS Version 10.38,2013-02-02 04:59:00,